STARLINK-5730 (55611 NORAD) Tracking and Keplerian Element Data

This shows tracking and keplerian element data for the satellite.

Feedback or suggestion? Click here.




ElementValue
Catalog55611
NameSTARLINK-5730
Epoch Orbit660
Epoch Day85.25001157
Epoch Year2023
RAAN103.8493
Inclination42.998
Eccentricity0.0001328
Argument of Perigee265.7742
Mean Anonmoly105.2456
Mean Motion15.48931661
Decay Rate-0.00055776
L11 55611U 23020AU 23085.25001157 -.00055776 00000+0 -10090-2 0 9997
L22 55611 42.9980 103.8493 0001328 265.7742 105.2456 15.48931661 6606



Live tracking and technical data element details for STARLINK-5730 (NORAD 55611). STARLINK-5730 can be tracked NOW for your location showing map with azimuth and elevation plus other details from your city location.







IsCatalogInMostPopularTable: catalog: 55611, numindb: -1

Insert: records affected: 1


GetName: 55611 STARLINK-5730

Hit Count: inserted at: Tue, 28 Mar 2023 03:28:07 GMT